Weather History for Monroe, LA

Change the Weather History Date:

Sunday, March 16, 2014

  Actual Average Record
Temperature  
Mean Temperature 55 °F 58 °F  
Max Temperature 68 °F 70 °F 85 °F (1963)
Min Temperature 41 °F 46 °F 30 °F (1954)
Degree Days  
Heating Degree Days 10 8  
Month to date heating degree days 239 156  
Since 1 July heating degree days 2565 2050  
Cooling Degree Days 0 1  
Month to date cooling degree days 1 14  
Year to date cooling degree days 3 25  
Growing Degree Days 4 (Base 50)    
Moisture  
Dew Point 52 °F    
Average Humidity 79    
Maximum Humidity 100    
Minimum Humidity 58    
Precipitation  
Precipitation 0.43 in 0.15 in 2.70 in (1980)
Month to date precipitation 2.05 2.58  
Year to date precipitation 6.48 12.22  
Snow  
Snow 0.00 in - - ()
Month to date snowfall 0.0  
Since 1 July snowfall 0.5  
Snow Depth 0.00 in    
Sea Level Pressure  
Sea Level Pressure 29.73 in    
Wind  
Wind Speed 12 mph (WNW)    
Max Wind Speed 29 mph    
Max Gust Speed 37 mph    
Visibility 7 miles    
Events Fog , Rain , Thunderstorm    
T = Trace of Precipitation, MM = Missing Value Source: NWS Daily Summary

Daily Weather History Graph

Daily Weather History Graph

Search for Another Location

Airport:

Trip Planner

Search our weather history database for the weather conditions in past years. The results will help you decide how hot, cold, wet, or windy it might be!

Date:

Astronomy

Mar. 16, 2014 Rise Set
Actual Time 7:17 AM CDT 7:16 PM CDT
Civil Twilight 6:52 AM CDT 7:41 PM CDT
Nautical Twilight 6:24 AM CDT 8:09 PM CDT
Astronomical Twilight 5:55 AM CDT 8:38 PM CDT
Moon 7:32 PM CDT (3/16) 7:01 AM CDT (3/16)
Length of Visible Light 12h 48m
Length of Day
11h 59m
Full, 100% of the Moon is Illuminated
Mar 16
Full
Mar 16
Full
Mar 23
Last Quarter
Mar 30
New
Apr 7
First Quarter

Hourly Weather History & Observations

Time (CDT) Temp. Windchill Dew Point Humidity Pressure Visibility Wind Dir Wind Speed Gust Speed Precip Events Conditions
12:00 AM 60.8 °F - 59.0 °F 94% 29.76 in 2.5 mi ESE 8.1 mph - 0.04 in Rain Heavy Rain
12:06 AM 60.8 °F - 59.0 °F 94% 29.75 in 3.0 mi East 9.2 mph - 0.05 in Rain Rain
12:53 AM 60.1 °F - 59.0 °F 96% 29.72 in 3.0 mi ESE 6.9 mph - 0.12 in Rain Heavy Rain
1:16 AM 60.8 °F - 59.0 °F 94% 29.70 in 3.0 mi East 6.9 mph - 0.09 in Rain , Thunderstorm Rain
1:26 AM 60.8 °F - 59.0 °F 94% 29.70 in 2.0 mi ESE 6.9 mph - 0.16 in Rain , Thunderstorm Heavy Rain
1:43 AM 60.8 °F - 59.0 °F 94% 29.71 in 3.0 mi Calm Calm - 0.27 in Rain , Thunderstorm Heavy Thunderstorms and Rain
1:53 AM 60.1 °F - 57.9 °F 93% 29.70 in 3.0 mi East 3.5 mph - 0.31 in Rain Rain
2:02 AM 60.8 °F - 59.0 °F 94% 29.70 in 2.5 mi Calm Calm - 0.04 in Rain Rain
2:15 AM 60.8 °F - 59.0 °F 94% 29.71 in 3.0 mi ESE 3.5 mph - 0.11 in Rain Rain
2:41 AM 60.8 °F - 59.0 °F 94% 29.74 in 10.0 mi WNW 17.3 mph - 0.11 in   Overcast
2:53 AM 61.0 °F - 57.9 °F 90% 29.72 in 10.0 mi NW 8.1 mph 21.9 mph 0.11 in Rain Light Rain
3:11 AM 60.8 °F - 57.2 °F 88% 29.70 in 10.0 mi SSW 3.5 mph - 0.00 in   Mostly Cloudy
3:53 AM 57.0 °F - 55.9 °F 96% 29.65 in 10.0 mi Calm Calm - 0.01 in   Clear
4:06 AM 55.4 °F - 55.4 °F 100% 29.64 in 1.8 mi SSW 3.5 mph - N/A   Clear
4:19 AM 55.4 °F - 55.4 °F 100% 29.64 in 3.0 mi SSW 3.5 mph - N/A   Clear
4:26 AM 55.4 °F - 55.4 °F 100% 29.64 in 1.2 mi SSW 4.6 mph - N/A   Clear
4:29 AM 57.2 °F - 55.4 °F 94% 29.64 in 0.8 mi Calm Calm - N/A   Mist
4:42 AM 53.6 °F - 53.6 °F 100% 29.64 in 0.2 mi SSW 3.5 mph - N/A Fog Fog
4:53 AM 55.9 °F - 55.0 °F 97% 29.65 in 0.5 mi SSW 4.6 mph - N/A Fog Fog
5:01 AM 55.4 °F - 55.4 °F 100% 29.65 in 1.2 mi SSW 5.8 mph - N/A   Partly Cloudy
5:07 AM 55.4 °F - 55.4 °F 100% 29.66 in 3.0 mi SSW 6.9 mph - N/A   Partly Cloudy
5:53 AM 55.0 °F - 55.0 °F 100% 29.66 in 10.0 mi SW 5.8 mph - N/A   Clear
6:53 AM 55.0 °F - 54.0 °F 96% 29.68 in 10.0 mi SW 4.6 mph - N/A   Clear
7:53 AM 57.0 °F - 55.9 °F 96% 29.69 in 10.0 mi WSW 9.2 mph - N/A   Clear
8:53 AM 59.0 °F - 55.9 °F 90% 29.71 in 8.0 mi West 11.5 mph - N/A   Mostly Cloudy
9:53 AM 59.0 °F - 55.0 °F 87% 29.72 in 10.0 mi West 9.2 mph - N/A   Overcast
10:53 AM 59.0 °F - 54.0 °F 83% 29.72 in 10.0 mi West 15.0 mph - N/A   Overcast
11:30 AM 60.8 °F - 53.6 °F 77% 29.75 in 10.0 mi West 15.0 mph 24.2 mph N/A   Scattered Clouds
11:53 AM 61.0 °F - 53.1 °F 75% 29.74 in 10.0 mi West 16.1 mph - N/A   Scattered Clouds
12:05 PM 60.8 °F - 53.6 °F 77% 29.73 in 10.0 mi West 16.1 mph - N/A   Mostly Cloudy
12:19 PM 62.6 °F - 53.6 °F 72% 29.72 in 10.0 mi West 15.0 mph - N/A   Scattered Clouds
12:37 PM 62.6 °F - 53.6 °F 72% 29.72 in 10.0 mi West 16.1 mph - N/A   Mostly Cloudy
12:53 PM 64.0 °F - 54.0 °F 70% 29.71 in 10.0 mi West 16.1 mph 24.2 mph N/A   Mostly Cloudy
1:23 PM 64.4 °F - 53.6 °F 68% 29.69 in 10.0 mi WNW 16.1 mph 28.8 mph N/A   Scattered Clouds
1:40 PM 64.4 °F - 51.8 °F 64% 29.69 in 10.0 mi NW 20.7 mph - N/A   Mostly Cloudy
1:50 PM 64.4 °F - 51.8 °F 64% 29.68 in 10.0 mi WNW 18.4 mph 26.5 mph N/A   Scattered Clouds
1:53 PM 64.9 °F - 52.0 °F 63% 29.68 in 10.0 mi WNW 19.6 mph 26.5 mph N/A   Scattered Clouds
2:53 PM 66.0 °F - 52.0 °F 60% 29.65 in 10.0 mi WNW 12.7 mph 25.3 mph N/A   Mostly Cloudy
3:53 PM 63.0 °F - 50.0 °F 63% 29.65 in 10.0 mi NW 20.7 mph 27.6 mph N/A   Overcast
4:53 PM 57.9 °F - 48.0 °F 70% 29.71 in 10.0 mi NW 18.4 mph 26.5 mph N/A   Overcast
5:53 PM 53.1 °F - 45.0 °F 74% 29.74 in 10.0 mi NNW 17.3 mph 26.5 mph 0.00 in Rain Light Rain
6:53 PM 51.1 °F - 43.0 °F 74% 29.81 in 10.0 mi NNW 19.6 mph 23.0 mph 0.00 in   Overcast
7:32 PM 48.2 °F - 44.6 °F 87% 29.84 in 3.0 mi North 18.4 mph 26.5 mph 0.01 in Rain Rain
7:53 PM 46.0 °F 39.6 °F 44.1 °F 93% 29.83 in 4.0 mi North 15.0 mph 21.9 mph 0.02 in Rain Light Rain
8:38 PM 44.6 °F 37.4 °F 41.0 °F 87% 29.87 in 10.0 mi North 16.1 mph - 0.00 in   Overcast
8:53 PM 44.1 °F 37.1 °F 39.9 °F 85% 29.86 in 10.0 mi North 15.0 mph 20.7 mph 0.00 in   Overcast
9:32 PM 42.8 °F 36.2 °F 39.2 °F 87% 29.89 in 6.0 mi North 12.7 mph - N/A   Overcast
9:53 PM 42.1 °F 35.2 °F 37.9 °F 85% 29.89 in 10.0 mi North 12.7 mph 18.4 mph N/A   Overcast
10:53 PM 42.1 °F 36.6 °F 37.0 °F 82% 29.92 in 10.0 mi North 9.2 mph - N/A   Overcast
11:53 PM 42.1 °F 34.9 °F 35.1 °F 76% 29.93 in 10.0 mi North 13.8 mph - N/A   Overcast